Location: Bismarck
(46.7731°N, 100.8200°W)
Time: 04:12:47
(UTC-05:00)

Amateur Radio Satellites - All Passes

Search period start: 02 September 2014 03:42
Search period end: 03 September 2014 03:42
Location: Bismarck, 46.7731°N, 100.8200°W

Satellite Date Start Highest point End Downlink Frequencies (MHz)
Time Altitude Azimuth
Oscar 16 02 Sep 03:53:11 03:58:20 63° 289° (WNW) 04:03:27 437.025 USB, Beacon 2401.1428
ITAMSAT 1 02 Sep 03:55:41 04:00:51 63° 102° (ESE) 04:06:00 435.822 SSB
SO-50 02 Sep 04:02:38 04:06:50 42° 119° (ESE) 04:11:10 436.795 FM
Uribyol 2 02 Sep 04:04:59 04:10:13 80° 104° (ESE) 04:15:26 436.500 FM
KITSAT 1 02 Sep 04:16:48 04:22:28 20° 350° (N) 04:28:09 435.175 FM
TMSAT-1 02 Sep 04:17:52 04:22:46 36° 96° (E) 04:27:37 436.925 FM
JAS-1B 02 Sep 04:21:56 04:28:49 86° 105° (ESE) 04:34:43 435.800 - 435.900 CW/SSB
AO-27 02 Sep 04:25:27 04:30:38 73° 287° (WNW) 04:35:48 436.795 MHz FM
AO-7 02 Sep 04:34:25 04:39:35 18° 87° (E) 04:44:42 29.400 - 29.500 MHz
OPAL 02 Sep 04:57:33 05:02:36 70° 70° (ENE) 05:07:45 ?
Oscar 19 02 Sep 04:58:04 05:01:50 21° 300° (WNW) 05:05:35 437.125 CW, 437.150 USB
AO-Echo 02 Sep 05:05:17 05:09:14 28° 295° (WNW) 05:13:12 ?
Gurwin Techsat 1B 02 Sep 05:07:37 05:12:54 66° 288° (WNW) 05:18:09 435.225 FM
Oscar 16 02 Sep 05:35:26 05:36:41 11° 308° (NW) 05:37:55 437.025 USB, Beacon 2401.1428
ITAMSAT 1 02 Sep 05:36:06 05:39:54 21° 300° (WNW) 05:43:42 435.822 SSB
SO-50 02 Sep 05:43:26 05:47:31 32° 319° (NW) 05:51:42 436.795 FM
Uribyol 2 02 Sep 05:45:48 05:49:04 17° 303° (WNW) 05:52:21 436.500 FM
UOSAT-12 02 Sep 05:48:07 05:52:25 40° 118° (ESE) 05:56:49 437.025 FM, 437.400 FM
Uosat F 02 Sep 05:57:12 06:02:08 56° 101° (E) 06:07:02 435.120 FM
TMSAT-1 02 Sep 05:57:54 06:02:39 35° 295° (WNW) 06:07:23 436.925 FM
AO-27 02 Sep 06:07:11 06:09:16 12° 306° (NW) 06:11:20 436.795 MHz FM
Saudisat 1A 02 Sep 06:07:27 06:10:59 23° 36° (NE) 06:14:29 436.775 MHz
JAS-1B 02 Sep 06:13:45 06:18:25 20° 310° (NW) 06:22:40 435.800 - 435.900 CW/SSB
KITSAT 1 02 Sep 06:14:56 06:21:13 24° 21° (NNE) 06:27:28 435.175 FM
AO-7 02 Sep 06:25:20 06:33:41 79° 108° (ESE) 06:41:58 29.400 - 29.500 MHz
RS-15 02 Sep 06:29:32 06:35:26 16° 96° (E) 06:41:16 29.354 - 29.394 USB, Beacon 29.352 USB
OPAL 02 Sep 06:38:44 06:42:01 17° 268° (W) 06:45:20 ?
STRAND 1 02 Sep 06:46:10 06:50:45 35° 66° (ENE) 06:55:20 ?
Gurwin Techsat 1B 02 Sep 06:50:08 06:51:53 12° 307° (NW) 06:53:39 435.225 FM
Hamsat 02 Sep 06:58:37 07:02:17 26° 94° (E) 07:05:54 145.90 MHz
JAS-2 02 Sep 07:13:11 07:18:02 36° 97° (E) 07:23:13 435.800 - 435.900 CW/SSB, 435.910 FM
SO-50 02 Sep 07:28:09 07:29:32 11° 343° (NNW) 07:30:56 436.795 FM
UOSAT-12 02 Sep 07:28:22 07:32:38 35° 318° (NW) 07:37:00 437.025 FM, 437.400 FM
Uosat F 02 Sep 07:36:45 07:40:34 22° 299° (WNW) 07:44:21 435.120 FM
Saudisat 1A 02 Sep 07:46:35 07:50:59 68° 236° (SW) 07:55:21 436.775 MHz
KITSAT 1 02 Sep 08:10:34 08:18:32 57° 47° (NE) 08:26:27 435.175 FM
AO-7 02 Sep 08:18:56 08:25:44 30° 309° (NW) 08:32:30 29.400 - 29.500 MHz
STRAND 1 02 Sep 08:25:19 08:29:56 34° 264° (W) 08:34:34 ?
Hamsat 02 Sep 08:34:22 08:38:18 34° 292° (WNW) 08:42:11 145.90 MHz
RS-15 02 Sep 08:34:38 08:45:32 68° 119° (ESE) 08:56:18 29.354 - 29.394 USB, Beacon 29.352 USB
JAS-2 02 Sep 08:58:29 09:03:10 34° 294° (WNW) 09:08:07 435.800 - 435.900 CW/SSB, 435.910 FM
HO-68 02 Sep 09:05:32 09:08:04 12° 84° (E) 09:10:35 435.675 MHz FM
SO-67 02 Sep 09:10:15 09:13:42 69° 285° (WNW) 09:17:08 435.3500 MHz FM
UOSAT-12 02 Sep 09:12:24 09:14:12 12° 341° (NNW) 09:16:00 437.025 FM, 437.400 FM
KITSAT 1 02 Sep 10:06:20 10:13:44 41° 249° (WSW) 10:21:05 435.175 FM
ISS 02 Sep 10:22:10 10:24:48 22° 139° (SE) 10:27:26 145.800 FM
UKube-1 02 Sep 10:33:19 10:36:57 25° 95° (E) 10:40:34 145.840 MHz, 145.915 MHz
Oscar 11 02 Sep 10:36:46 10:39:59 20° 92° (E) 10:43:10 145.825 FM, Beacon 2401.500 USB
RS-15 02 Sep 10:48:02 10:58:31 47° 325° (NW) 11:09:02 29.354 - 29.394 USB, Beacon 29.352 USB
HO-68 02 Sep 10:50:00 10:57:08 66° 104° (ESE) 11:04:15 435.675 MHz FM
SO-50 02 Sep 10:51:17 10:54:48 20° 32° (NNE) 10:58:21 436.795 FM
FUNcube-1 02 Sep 11:10:03 11:13:20 19° 91° (E) 11:16:37 145.950 - 145.970 MHz USB
ISS 02 Sep 11:57:56 12:01:16 72° 337° (NNW) 12:04:36 145.800 FM
UKube-1 02 Sep 12:09:16 12:13:14 35° 292° (WNW) 12:17:10 145.840 MHz, 145.915 MHz
Oscar 11 02 Sep 12:12:13 12:16:24 46° 290° (WNW) 12:20:34 145.825 FM, Beacon 2401.500 USB
SO-50 02 Sep 12:31:15 12:36:03 86° 53° (NE) 12:40:54 436.795 FM
UOSAT-12 02 Sep 12:35:18 12:38:40 19° 31° (NNE) 12:42:01 437.025 FM, 437.400 FM
HO-68 02 Sep 12:38:22 12:44:22 30° 303° (WNW) 12:50:22 435.675 MHz FM
FUNcube-1 02 Sep 12:45:35 12:49:59 51° 289° (WNW) 12:54:27 145.950 - 145.970 MHz USB
Oscar 19 02 Sep 13:00:18 13:03:55 20° 59° (ENE) 13:07:34 437.125 CW, 437.150 USB
RS-15 02 Sep 13:05:00 13:14:18 30° 359° (N) 13:23:44 29.354 - 29.394 USB, Beacon 29.352 USB
AO-Echo 02 Sep 13:07:53 13:08:47 11° 55° (NE) 13:09:42 ?
JAS-1B 02 Sep 13:18:49 13:26:09 28° 56° (NE) 13:32:45 435.800 - 435.900 CW/SSB
MaSat-1 02 Sep 13:31:37 13:36:25 50° 112° (ESE) 13:41:25 437.345 MHz
Oscar 16 02 Sep 13:34:19 13:39:02 37° 66° (ENE) 13:43:47 437.025 USB, Beacon 2401.1428
ISS 02 Sep 13:35:15 13:38:20 34° 356° (N) 13:41:25 145.800 FM
ITAMSAT 1 02 Sep 13:39:13 13:42:54 20° 59° (ENE) 13:46:35 435.822 SSB
Uribyol 2 02 Sep 13:47:53 13:51:59 25° 61° (ENE) 13:56:06 436.500 FM
AO-7 02 Sep 13:51:30 13:53:00 11° 30° (NNE) 13:54:31 29.400 - 29.500 MHz
TMSAT-1 02 Sep 14:05:25 14:07:40 13° 54° (NE) 14:09:56 436.925 FM
AO-27 02 Sep 14:07:52 14:12:29 34° 65° (ENE) 14:17:07 436.795 MHz FM
SO-50 02 Sep 14:13:24 14:16:00 15° 251° (WSW) 14:18:36 436.795 FM
UOSAT-12 02 Sep 14:14:50 14:19:36 78° 52° (NE) 14:24:17 437.025 FM, 437.400 FM
Oscar 19 02 Sep 14:37:36 14:42:45 68° 258° (WSW) 14:47:57 437.125 CW, 437.150 USB
AO-Echo 02 Sep 14:41:47 14:46:43 68° 73° (ENE) 14:51:32 ?
Gurwin Techsat 1B 02 Sep 14:52:21 14:57:13 39° 66° (ENE) 15:02:07 435.225 FM
JAS-1B 02 Sep 15:06:12 15:15:54 89° 254° (WSW) 15:24:23 435.800 - 435.900 CW/SSB
MaSat-1 02 Sep 15:09:14 15:13:41 30° 312° (NW) 15:18:12 437.345 MHz
ISS 02 Sep 15:12:15 15:15:31 48° 17° (NNE) 15:18:45 145.800 FM
Oscar 16 02 Sep 15:13:48 15:18:25 33° 264° (W) 15:23:05 437.025 USB, Beacon 2401.1428
ITAMSAT 1 02 Sep 15:16:47 15:21:55 66° 258° (WSW) 15:27:05 435.822 SSB
RS-15 02 Sep 15:19:51 15:30:16 44° 32° (NNE) 15:40:56 29.354 - 29.394 USB, Beacon 29.352 USB
Uribyol 2 02 Sep 15:26:08 15:31:09 52° 260° (W) 15:36:12 436.500 FM
AO-7 02 Sep 15:36:03 15:43:21 36° 55° (NE) 15:50:37 29.400 - 29.500 MHz
Uosat F 02 Sep 15:37:08 15:40:10 16° 57° (ENE) 15:43:13 435.120 FM
TMSAT-1 02 Sep 15:41:26 15:46:42 74° 73° (ENE) 15:52:00 436.925 FM
AO-27 02 Sep 15:47:13 15:51:58 36° 263° (W) 15:56:44 436.795 MHz FM
UOSAT-12 02 Sep 15:56:21 15:59:09 16° 250° (WSW) 16:01:55 437.025 FM, 437.400 FM
PCSat 02 Sep 16:19:19 16:22:58 19° 106° (ESE) 16:26:38 145.825 MHz
AO-Echo 02 Sep 16:22:56 16:25:57 16° 270° (W) 16:28:56 ?
Gurwin Techsat 1B 02 Sep 16:32:31 16:37:15 32° 265° (W) 16:42:00 435.225 FM
ISS 02 Sep 16:49:04 16:52:14 41° 215° (SW) 16:55:23 145.800 FM
JAS-1B 02 Sep 17:00:00 17:07:11 24° 271° (W) 17:13:50 435.800 - 435.900 CW/SSB
OPAL 02 Sep 17:06:11 17:08:58 14° 90° (E) 17:11:44 ?
Uosat F 02 Sep 17:13:20 17:18:21 80° 256° (WSW) 17:23:23 435.120 FM
TMSAT-1 02 Sep 17:23:54 17:27:12 17° 271° (W) 17:30:31 436.925 FM
AO-7 02 Sep 17:27:25 17:35:41 65° 255° (WSW) 17:43:59 29.400 - 29.500 MHz
JAS-2 02 Sep 17:29:49 17:34:10 23° 61° (ENE) 17:38:17 435.800 - 435.900 CW/SSB, 435.910 FM
Sapphire 02 Sep 17:31:17 17:36:37 64° 118° (ESE) 17:42:00 437.095 MHz 1200 baud AX-25 AFSK
RS-15 02 Sep 17:32:34 17:43:35 76° 239° (WSW) 17:55:02 29.354 - 29.394 USB, Beacon 29.352 USB
Hamsat 02 Sep 17:54:45 17:58:26 28° 66° (ENE) 18:02:08 145.90 MHz
PCSat 02 Sep 18:00:22 18:05:46 75° 305° (NW) 18:11:14 145.825 MHz
OPAL 02 Sep 18:43:14 18:48:30 84° 288° (WNW) 18:53:43 ?
Uosat F 02 Sep 18:57:08 18:57:57 10° 274° (W) 18:58:46 435.120 FM
JAS-2 02 Sep 19:13:08 19:18:59 60° 258° (WSW) 19:24:19 435.800 - 435.900 CW/SSB, 435.910 FM
Sapphire 02 Sep 19:15:53 19:20:29 27° 319° (NW) 19:25:06 437.095 MHz 1200 baud AX-25 AFSK
AO-7 02 Sep 19:26:32 19:30:07 13° 276° (W) 19:33:43 29.400 - 29.500 MHz
Hamsat 02 Sep 19:30:23 19:34:18 33° 264° (W) 19:38:16 145.90 MHz
HO-68 02 Sep 19:37:44 19:41:48 16° 47° (NE) 19:45:53 435.675 MHz FM
SO-67 02 Sep 19:45:44 19:49:09 58° 74° (ENE) 19:52:34 435.3500 MHz FM
PCSat 02 Sep 19:46:21 19:50:08 19° 327° (NNW) 19:53:57 145.825 MHz
RS-15 02 Sep 19:46:48 19:54:04 20° 261° (W) 20:01:32 29.354 - 29.394 USB, Beacon 29.352 USB
OPAL 02 Sep 20:23:43 20:26:37 15° 307° (NW) 20:29:30 ?
STRAND 1 02 Sep 20:32:15 20:37:21 65° 102° (ESE) 20:42:25 ?
Sapphire 02 Sep 21:05:28 21:05:53 10° 344° (NNW) 21:06:18 437.095 MHz 1200 baud AX-25 AFSK
HO-68 02 Sep 21:21:12 21:28:14 66° 68° (ENE) 21:35:18 435.675 MHz FM
SO-67 02 Sep 21:22:23 21:22:34 10° 271° (W) 21:22:45 435.3500 MHz FM
UKube-1 02 Sep 21:31:33 21:35:25 33° 67° (ENE) 21:39:18 145.840 MHz, 145.915 MHz
Oscar 11 02 Sep 21:34:42 21:38:07 23° 64° (ENE) 21:41:34 145.825 FM, Beacon 2401.500 USB
MaSat-1 02 Sep 21:46:41 21:50:40 26° 46° (NE) 21:54:15 437.345 MHz
Saudisat 1A 02 Sep 21:57:25 22:00:01 16° 111° (ESE) 22:02:37 436.775 MHz
FUNcube-1 02 Sep 22:09:43 22:12:55 21° 63° (ENE) 22:16:10 145.950 - 145.970 MHz USB
STRAND 1 02 Sep 22:12:26 22:16:05 20° 301° (WNW) 22:19:43 ?
KITSAT 1 02 Sep 22:44:06 22:50:04 23° 104° (ESE) 22:56:03 435.175 FM
UKube-1 02 Sep 23:07:56 23:11:39 27° 264° (W) 23:15:23 145.840 MHz, 145.915 MHz
Oscar 11 02 Sep 23:10:00 23:14:05 40° 262° (W) 23:18:14 145.825 FM, Beacon 2401.500 USB
HO-68 02 Sep 23:10:33 23:16:27 28° 267° (W) 23:22:24 435.675 MHz FM
PCSat 02 Sep 23:20:29 23:22:10 11° 20° (NNE) 23:23:50 145.825 MHz
MaSat-1 02 Sep 23:23:34 23:27:52 42° 249° (WSW) 23:31:37 437.345 MHz
Saudisat 1A 02 Sep 23:34:40 23:39:04 72° 309° (NW) 23:43:30 436.775 MHz
FUNcube-1 02 Sep 23:45:02 23:49:02 42° 262° (W) 23:53:10 145.950 - 145.970 MHz USB
Sapphire 03 Sep 00:33:35 00:37:48 22° 37° (NE) 00:41:59 437.095 MHz 1200 baud AX-25 AFSK
KITSAT 1 03 Sep 00:36:23 00:44:30 87° 304° (NW) 00:52:39 435.175 FM
PCSat 03 Sep 01:02:27 01:07:22 33° 44° (NE) 01:12:14 145.825 MHz
Saudisat 1A 03 Sep 01:16:35 01:19:25 16° 330° (NNW) 01:22:16 436.775 MHz
Sapphire 03 Sep 02:16:28 02:21:57 87° 238° (WSW) 02:27:22 437.095 MHz 1200 baud AX-25 AFSK
KITSAT 1 03 Sep 02:34:01 02:41:01 31° 329° (NNW) 02:48:03 435.175 FM
PCSat 03 Sep 02:45:45 02:50:59 50° 244° (WSW) 02:56:11 145.825 MHz
Oscar 19 03 Sep 02:46:31 02:51:16 35° 96° (E) 02:55:57 437.125 CW, 437.150 USB
AO-Echo 03 Sep 02:47:11 02:50:08 16° 90° (E) 02:53:04 ?
SO-50 03 Sep 02:51:33 02:53:39 13° 109° (ESE) 02:55:47 436.795 FM
JAS-1B 03 Sep 02:51:39 02:56:10 19° 86° (E) 03:00:18 435.800 - 435.900 CW/SSB
Gurwin Techsat 1B 03 Sep 03:07:40 03:09:29 12° 86° (E) 03:11:16 435.225 FM
Oscar 16 03 Sep 03:21:46 03:27:00 72° 103° (ESE) 03:32:10 437.025 USB, Beacon 2401.1428
ITAMSAT 1 03 Sep 03:26:52 03:31:38 35° 97° (E) 03:36:22 435.822 SSB
